Back to catalog

STARLINK-2405

AliveCommunicationsVLEO
NORAD 47919·PAYLOAD·🇺🇸 United States

Launched Mar 14, 2021 from Cape Canaveral Space Force Station

Loading…

Next Passes (next 24 hours)

TLE

FreshSource: CelesTrak SupGP

Epoch: Sep 14, 2026, 21:05 UTC

1 47919C 21021BM  26257.87895833 -.00018972  00000+0 -61035-3 0  2572
2 47919  53.1585 120.5182 0001440  80.0351 317.2313 15.31697538    13

Track STARLINK-2405 in real time with AllMySat

Download on the App Store